NOAA 17 DEB

基本信息
目录编号:
48616
目录名称:
NOAA 17 DEB
国际标识:
2002-032AH
轨道中心:
EARTH
物体状态:
在轨
发射日期:
2002-06-24 UTC
轨道信息
数据来源: 国际轨道数据
星历时间: 2026-07-14T02:47:43+0800
半长轴: 7073.09km
偏心率: 0.0008433
轨道倾角: 98.711°
近地点辐角: 121.559°
升交点赤经: 182.214°
平近点角: 238.644°
近地点: 688.988km
远地点: 700.918km
周期: 98.667分钟
每日圈数: 14.594495
详细信息
发射场:
AFWTR
轨道高度:
LEO
数据来源:
AOE Integration Group
参考系:
TEME
时间系统:
UTC
历元类型:
SGP4
2D轨道图
3D轨道图
轨道高度分析图
轨道倾角分析图
轨道综合分析图
查看轨道综合分析图